Showing default

NUSANTARA SATU, 44048

Orbit data source: Space-Track

NUSANTARA SATU, 44048 is a payload satellite owned by PSN (ID) in GEO that was launched on Fri, 22 Feb 2019 UTC via an FALCON 9 launch vehicle from the Air Force Eastern Test Range (AFETR). Payload-class satellites include a variety of spacecraft equipped with specific instruments for various scientific and technological missions. These include communications satellites like Starlink; space stations such as the ISS; scientific satellites like the Hubble; Earth observation satellites from companies like Planet Labs, Umbra, and HawkEye 360; GPS; miniature CubeSats for education and research; and military/defense satellites.

Not visible in the next 10 days
Identifier
44048, 2019-009A
Orbit
GEO
Country
Flag of IDID / INDO
Related business
Manufacturer
Maxar SSL
Mission
Operational Commercial Communications
Bus & Motor
LS-1300, R-4D
Mass
4,736 kg wet, ~2,500 kg dry
Launch date (UTC)
2019-02-22 (7 years ago)
Launch vehicle
FALCON 9
Launch site
Air Force Eastern Test Range (AFETR)
Object type
Payload
Rocket body
Debris
Shape & HBR
Box + 2 Pan, 13.1 m
Radar Cross Section
120.644 m², Large (>1 m²)

Expand to show TLE details & history
Last TLE update: 13 hours ago

TLE from 13 hours ago
0 NUSANTARA SATU
1 44048U 19009A   26202.17614492 -.00000234  00000-0  00000-0 0  9995
2 44048   0.0318 117.6253 0004828  10.7897  19.9325  1.00269807 27116
Epoch: 2026-07-21T04:13Z
TLE epoch observation values (Epoch: 2026-07-21T04:13:38.921Z)
Latitude
0.03008°
Longitude
146.01901°
Altitude
35,767.444 km
Speed
3.076 km/s
True Right ascension
09h 53m 31s
True Declination
0° 01' 48"
Sunlit
Object was in daylight at epoch
Visualization orbit readout
Latitude
Unknown
Longitude
Unknown
Altitude
Unknown
Speed
Unknown
Apparent Right ascension
Unknown
Apparent Declination
Unknown
Sunlit
N/A
Visualization observer readout
Local Sidereal Time
06:14:44
Azimuth
Unknown
Elevation
Unknown
Doppler factor
Unknown
Orbital elements
Apogee altitude
35,808.578 km
Perigee altitude
35,767.862 km
Semi-major axis
42,166.357 km
Eccentricity
0.00048
Inclination
0.0318°
RAAN
117.6253°
Arg. of periapsis
10.7897°
True anomaly
19.95137°
Mean anomaly
19.9325°
Eccentric anomaly
19.94193°
Mean motion
0.25067 °/min
Orbital period
1,436.18 mins
BSTAR
0
Loading maneuver chart data...
Computing Atmospheric mass density...
Loading historical data...
Loading historical data...
Loading historical data...
Loading historical data...
Loading historical data...
Loading historical data...
Loading historical data...
Other satellites on launch #9 in the year 2019 (2019-02-22 UTC)

Documentation

Showing up to 5 results
|